Date String (YYYY-MM-DD hh:mm:ss) UTC,Instrument flags,Ambient pressure (hPa),Sample flow (lpm),Bypass flow (lpm),Sample temperature (°C),Ambient temperature (°C),ASC tube jacket temperature (°C),LED temperature (°C),Box temperature (°C),Sample RH (%),Span deviation,Mass concentration (μg/m³),Mass concentration (μg/m³),Mass concentration (μg/m³)
DateTimeUTC,F1_M11,P_M11,Q1_M11,Q2_M11,T1_M11,T2_M11,T3_M11,T4_M11,T5_M11,U1_M11,ZSPAN_M11,X0_M11,X2_M11,X1_M11
2022-10-07 00:00:00,,0833.1,5.01,0.00,29.6,27.4,00.0,38.3,31.3,15.5,0000.8,0015.91,0006.71,0005.82
2022-10-07 00:01:00,,0833.0,5.00,0.00,29.6,27.7,00.0,38.3,31.4,15.6,0001.5,0015.36,0006.52,0005.80
2022-10-07 00:02:00,,0833.0,5.00,0.00,29.6,27.9,00.0,38.3,31.4,15.5,0002.9,0014.32,0006.31,0005.75
2022-10-07 00:03:00,,0833.0,5.01,0.00,29.6,28.1,00.0,38.3,31.5,15.6,0003.7,0014.20,0006.27,0005.70
2022-10-07 00:04:00,,0833.0,5.00,0.00,29.6,28.2,00.0,38.3,31.5,15.6,0003.3,0013.34,0006.21,0005.67
2022-10-07 00:05:00,,0833.0,5.01,0.00,29.6,28.3,00.0,38.3,31.6,15.5,0003.9,0012.98,0006.16,0005.65
2022-10-07 00:06:00,,0833.1,4.99,0.00,29.7,28.5,00.0,38.3,31.6,15.5,0004.7,0013.06,0006.15,0005.64
2022-10-07 00:07:00,,0833.1,5.00,0.00,29.7,28.6,00.0,38.3,31.7,15.7,0004.5,0013.58,0006.15,0005.65
2022-10-07 00:08:00,,0833.0,5.01,0.00,29.7,28.7,00.0,38.4,31.7,15.9,0005.2,0014.30,0006.15,0005.65
2022-10-07 00:09:00,,0833.1,4.99,0.00,29.8,28.8,00.0,38.4,31.8,15.5,0005.4,0014.22,0006.19,0005.67
2022-10-07 00:10:00,,0833.1,5.01,0.00,29.8,28.5,00.0,38.4,31.8,15.2,0005.1,0014.41,0006.25,0005.70
2022-10-07 00:11:00,,0833.1,5.00,0.00,29.8,27.1,00.0,38.4,31.6,15.1,0004.5,0014.87,0006.27,0005.73
2022-10-07 00:12:00,,0833.0,4.99,0.00,29.7,26.6,00.0,38.4,31.5,15.1,0003.2,0014.26,0006.36,0005.80
2022-10-07 00:13:00,,0833.0,4.99,0.00,29.7,26.8,00.0,38.3,31.4,15.1,0000.3,0014.37,0006.38,0005.85
2022-10-07 00:14:00,,0833.0,5.00,0.00,29.6,27.0,00.0,38.3,31.3,15.1,-000.3,0015.13,0006.42,0005.89
2022-10-07 00:15:00,,0833.0,5.00,0.00,29.6,27.3,00.0,38.3,31.3,15.2,0000.5,0015.59,0006.49,0005.95
2022-10-07 00:16:00,,0833.0,5.00,0.00,29.6,27.6,00.0,38.3,31.4,15.3,0000.5,0015.74,0006.52,0005.97
2022-10-07 00:17:00,,0833.0,4.99,0.00,29.6,27.9,00.0,38.3,31.4,15.4,0000.2,0015.94,0006.52,0005.97
2022-10-07 00:18:00,,0833.0,5.01,0.00,29.6,28.1,00.0,38.3,31.4,15.2,0000.4,0015.40,0006.54,0005.98
2022-10-07 00:19:00,,0833.0,4.98,0.00,29.6,28.2,00.0,38.3,31.5,15.1,0000.1,0015.42,0006.57,0006.00
2022-10-07 00:20:00,,0833.0,5.01,0.00,29.6,28.3,00.0,38.3,31.6,15.2,-000.9,0015.12,0006.57,0006.01
2022-10-07 00:21:00,,0833.0,4.99,0.00,29.7,28.4,00.0,38.3,31.6,14.9,-001.1,0014.64,0006.55,0006.01
2022-10-07 00:22:00,,0833.0,4.99,0.00,29.7,28.6,00.0,38.3,31.6,14.9,-001.1,0013.67,0006.55,0006.02
2022-10-07 00:23:00,,0833.0,5.01,0.00,29.7,28.7,00.0,38.4,31.7,14.9,-000.5,0013.60,0006.52,0005.98
2022-10-07 00:24:00,,0833.0,4.99,0.00,29.7,28.7,00.0,38.4,31.7,15.0,0000.1,0013.55,0006.50,0005.95
2022-10-07 00:25:00,,0833.0,5.01,0.00,29.8,28.8,00.0,38.4,31.7,15.0,0000.4,0012.88,0006.48,0005.92
2022-10-07 00:26:00,,0833.1,4.99,0.00,29.8,28.5,00.0,38.4,31.7,15.0,0000.6,0012.50,0006.45,0005.89
2022-10-07 00:27:00,,0833.0,5.01,0.00,29.8,27.0,00.0,38.4,31.6,15.0,0001.0,0012.60,0006.44,0005.88
2022-10-07 00:28:00,,0833.0,5.01,0.00,29.7,26.5,00.0,38.4,31.5,15.1,0000.5,0012.89,0006.46,0005.88
2022-10-07 00:29:00,,0833.1,5.01,0.00,29.7,26.7,00.0,38.3,31.4,15.2,-000.2,0013.92,0006.46,0005.87
2022-10-07 00:30:00,,0833.1,5.00,0.00,29.6,26.9,00.0,38.3,31.3,15.4,-000.0,0013.91,0006.44,0005.85
2022-10-07 00:31:00,,0833.1,5.00,0.00,29.6,27.2,00.0,38.3,31.3,15.4,0001.7,0014.49,0006.42,0005.84
2022-10-07 00:32:00,,0833.1,5.01,0.00,29.6,27.5,00.0,38.3,31.3,15.5,0002.6,0014.43,0006.37,0005.80
2022-10-07 00:33:00,,0833.1,4.99,0.00,29.6,27.8,00.0,38.3,31.4,15.6,0002.0,0014.70,0006.35,0005.75
2022-10-07 00:34:00,,0833.2,5.00,0.00,29.6,28.0,00.0,38.3,31.4,15.6,0002.7,0014.26,0006.32,0005.72
2022-10-07 00:35:00,,0833.2,5.00,0.00,29.6,28.2,00.0,38.3,31.5,15.6,0002.0,0014.01,0006.30,0005.70
2022-10-07 00:36:00,,0833.2,4.99,0.00,29.6,28.3,00.0,38.3,31.5,15.6,0001.9,0014.15,0006.30,0005.68
2022-10-07 00:37:00,,0833.1,5.01,0.00,29.6,28.4,00.0,38.3,31.5,15.5,0001.6,0014.29,0006.26,0005.66
2022-10-07 00:38:00,,0833.2,5.00,0.00,29.7,28.5,00.0,38.3,31.6,15.6,0001.3,0014.43,0006.24,0005.65
2022-10-07 00:39:00,,0833.2,5.00,0.00,29.7,28.6,00.0,38.4,31.6,15.6,0000.8,0013.98,0006.19,0005.63
2022-10-07 00:40:00,,0833.3,5.00,0.00,29.7,28.7,00.0,38.4,31.7,15.5,0001.4,0013.97,0006.15,0005.61
2022-10-07 00:41:00,,0833.3,5.00,0.00,29.8,28.7,00.0,38.4,31.7,15.5,0001.7,0013.60,0006.15,0005.61
2022-10-07 00:42:00,,0833.3,5.01,0.00,29.8,28.8,00.0,38.4,31.8,15.7,0001.1,0014.03,0006.17,0005.62
2022-10-07 00:43:00,,0833.3,4.99,0.00,29.8,28.8,00.0,38.5,31.8,15.6,0000.4,0014.10,0006.19,0005.63
2022-10-07 00:44:00,,0833.3,5.01,0.00,29.9,28.7,00.0,38.5,31.8,15.5,0001.4,0014.21,0006.18,0005.64
2022-10-07 00:45:00,,0833.3,5.01,0.00,29.8,27.2,00.0,38.4,31.7,15.4,0001.5,0014.16,0006.15,0005.64
2022-10-07 00:46:00,,0833.3,4.99,0.00,29.8,26.5,00.0,38.4,31.6,15.5,0002.0,0014.10,0006.18,0005.66
2022-10-07 00:47:00,,0833.3,5.00,0.00,29.7,26.6,00.0,38.4,31.4,15.5,0001.8,0014.17,0006.14,0005.66
2022-10-07 00:48:00,,0833.3,5.01,0.00,29.6,26.9,00.0,38.4,31.4,15.4,0001.0,0014.19,0006.17,0005.67
2022-10-07 00:49:00,,0833.3,5.00,0.00,29.6,27.3,00.0,38.3,31.4,15.5,0001.2,0014.28,0006.21,0005.69
2022-10-07 00:50:00,,0833.4,5.00,0.00,29.6,27.6,00.0,38.3,31.4,15.6,0000.9,0015.73,0006.22,0005.67
2022-10-07 00:51:00,,0833.4,5.01,0.00,29.6,27.8,00.0,38.3,31.4,15.7,0000.1,0015.36,0006.22,0005.65
2022-10-07 00:52:00,,0833.5,4.99,0.00,29.6,28.0,00.0,38.3,31.5,15.7,0000.2,0015.22,0006.20,0005.64
2022-10-07 00:53:00,,0833.4,5.01,0.00,29.6,28.1,00.0,38.3,31.5,15.6,0000.7,0014.11,0006.19,0005.64
2022-10-07 00:54:00,,0833.5,4.99,0.00,29.6,28.3,00.0,38.3,31.5,15.6,0000.3,0014.23,0006.18,0005.64
2022-10-07 00:55:00,,0833.4,5.02,0.00,29.7,28.4,00.0,38.3,31.5,15.7,0000.1,0013.75,0006.18,0005.65
2022-10-07 00:56:00,,0833.4,4.99,0.00,29.7,28.5,00.0,38.3,31.6,15.7,-000.2,0013.87,0006.27,0005.67
2022-10-07 00:57:00,,0833.4,5.01,0.00,29.7,28.6,00.0,38.4,31.6,15.7,-000.5,0014.10,0006.26,0005.66
2022-10-07 00:58:00,,0833.4,4.99,0.00,29.7,28.6,00.0,38.4,31.7,15.7,0000.1,0014.11,0006.28,0005.66
2022-10-07 00:59:00,,0833.4,5.00,0.00,29.8,28.7,00.0,38.4,31.7,15.5,0000.1,0013.85,0006.26,0005.64
